THY3574 LTAN-LTCI

Flight info

Callsign THY3574
Flight time N/A
Altitude 36000
Route OBRUK DCT MANAZ UW74 ADA/N0453F370 UW74 MILBA UT470 GAZ UW716 DYB UW73 BAYIR UG81 BEYAZ
Aircraft B738/M-SDE2E3FGHIRWXY/LB1

Departure

Time 2026-05-01 15:27
Airport Konya Airport (LTAN)

Arrival

Time N/A
Airport Van Ferit Melen Airport (LTCI)
Time Latitude Longitude Altitude Speed Heading
2026-05-01 15:07 37.98435 32.57517 3390 ft 0 kts 105°
2026-05-01 15:17 37.98436 32.57511 3390 ft 2 kts 101°
2026-05-01 15:18 37.98423 32.57455 3390 ft 2 kts 30°
2026-05-01 15:18 37.98409 32.57447 3390 ft 1 kts 16°
2026-05-01 15:19 37.98406 32.57446 3390 ft 0 kts 15°
2026-05-01 15:20 37.98421 32.57450 3390 ft 3 kts 15°
2026-05-01 15:20 37.98444 32.57459 3390 ft 4 kts 15°
2026-05-01 15:20 37.98478 32.57471 3390 ft 6 kts 15°
2026-05-01 15:21 37.98521 32.57485 3390 ft 7 kts 15°
2026-05-01 15:21 37.98571 32.57503 3390 ft 8 kts 15°
2026-05-01 15:21 37.98628 32.57523 3390 ft 9 kts 15°
2026-05-01 15:21 37.98690 32.57545 3390 ft 10 kts 15°
2026-05-01 15:22 37.98828 32.57585 3390 ft 10 kts 12°
2026-05-01 15:22 37.98898 32.57578 3390 ft 10 kts 332°
2026-05-01 15:22 37.98954 32.57516 3390 ft 11 kts 311°
2026-05-01 15:23 37.99007 32.57435 3390 ft 12 kts 310°
2026-05-01 15:23 37.99063 32.57351 3390 ft 13 kts 310°
2026-05-01 15:23 37.99123 32.57263 3390 ft 14 kts 310°
2026-05-01 15:23 37.99187 32.57166 3390 ft 15 kts 310°
2026-05-01 15:24 37.99252 32.57062 3390 ft 15 kts 300°
2026-05-01 15:24 37.99286 32.56934 3390 ft 15 kts 287°
2026-05-01 15:24 37.99314 32.56818 3389 ft 12 kts 287°
2026-05-01 15:24 37.99327 32.56767 3388 ft 5 kts 287°
2026-05-01 15:25 37.99317 32.56728 3389 ft 5 kts 219°
2026-05-01 15:25 37.99281 32.56716 3389 ft 6 kts 197°
2026-05-01 15:25 37.99278 32.56715 3389 ft 0 kts 197°
2026-05-01 15:25 37.99276 32.56715 3389 ft 3 kts 197°
2026-05-01 15:26 37.99179 32.56678 3389 ft 41 kts 197°
2026-05-01 15:26 37.98635 32.56472 3390 ft 120 kts 197°
2026-05-01 15:26 37.97605 32.56082 3392 ft 187 kts 197°
2026-05-01 15:26 37.96198 32.55506 3558 ft 230 kts 199°
2026-05-01 15:27 37.94677 32.54930 4602 ft 223 kts 195°
2026-05-01 15:27 37.93168 32.54512 5637 ft 220 kts 194°
2026-05-01 15:27 37.91630 32.54126 6269 ft 230 kts 194°
2026-05-01 15:28 37.88375 32.53367 7190 ft 260 kts 193°
2026-05-01 15:28 37.86562 32.52763 7535 ft 276 kts 206°
2026-05-01 15:28 37.84900 32.51526 8316 ft 277 kts 218°
2026-05-01 15:29 37.82932 32.47588 9819 ft 286 kts 263°
2026-05-01 15:29 37.83116 32.44998 10108 ft 308 kts 287°
2026-05-01 15:29 37.85528 32.41630 10987 ft 335 kts 333°
2026-05-01 15:30 37.90025 32.41717 13161 ft 330 kts 21°
2026-05-01 15:31 37.95771 32.49453 14926 ft 298 kts 57°
2026-05-01 15:31 37.98126 32.53753 14933 ft 296 kts 53°
2026-05-01 15:32 37.99846 32.58396 14964 ft 297 kts 86°
2026-05-01 15:32 38.00117 32.63907 15285 ft 336 kts 89°
2026-05-01 15:33 38.00546 32.73586 15736 ft 395 kts 88°
2026-05-01 15:34 38.01078 32.84323 17335 ft 412 kts 88°